Regional Weather Roundup
Issued by NWS

Home | Current Version | Previous Version | Graphics & Text | Print | Product List | Glossary On
Versions: 1 2 3 4 5 6 7 8 9 10 11 12 13 14 15 16 17 18 19 20 21 22 23 24 25 26 27 28 29 30 31 32 33 34 35 36 37 38 39 40 41 42 43 44 45 46 47 48 49 50
000
ASUS45 KPSR 261700
RWRAZ

ARIZONA REGIONAL HOURLY WEATHER ROUNDUP
NATIONAL WEATHER SERVICE PHOENIX AZ
1000 AM MST THU MAR 26 2015

NOTE: FAIR INDICATES FEW OR NO CLOUDS BELOW 12,000 FEET WITH NO
SIGNIFICANT WEATHER AND/OR OBSTRUCTIONS TO VISIBILITY.

AZZ001>003-036-261800-
NORTHWEST ARIZONA

CITY           SKY/WX    TMP DP  RH WIND       PRES   REMARKS
KINGMAN        SUNNY     65  15  14 N12       30.28R
$$

AZZ004>008-015-016-018-261800-
NORTH CENTRAL ARIZONA

CITY           SKY/WX    TMP DP  RH WIND       PRES   REMARKS
GRAND CANYON   SUNNY     51   8  17 E13       30.40R
WILLIAMS       SUNNY     54  10  17 NE5       30.41R
PRESCOTT       MOSUNNY   56  15  20 CALM      30.31R
FLAGSTAFF      NOT AVBL
PAYSON         SUNNY     59   9  13 NE5G13    30.31R
PAGE           SUNNY     56  14  19 N3        30.37R
$$

AZZ009>014-017-261800-
NORTHEAST ARIZONA

CITY           SKY/WX    TMP DP  RH WIND       PRES   REMARKS
WINSLOW        NOT AVBL
SAINT JOHNS    SUNNY     54   9  16 VRB6      30.34R
WINDOW ROCK    SUNNY     54   6  14 CALM      30.35S
SHOW LOW       SUNNY     48   7  18 NE7       30.37S
$$

AZZ023-261800-
GREATER PHOENIX AREA

CITY           SKY/WX    TMP DP  RH WIND       PRES   REMARKS
PHOENIX        PTSUNNY   78  14   9 NE15      30.12R
GLENDALE       MOSUNNY   79  21  11 N8        30.15R
DEER VALLEY    MOSUNNY   76  14   9 NE14G22   30.14R
SCOTTSDALE     MOSUNNY   76  15  10 CALM      30.15R
MESA-FALCON    MOSUNNY   75   7   7 N13       30.13R
MESA-GATEWAY   MOSUNNY   73  25  16 W7        30.14R
CHANDLER       MOSUNNY   73  28  19 VRB3      30.13R
$$

AZZ027-028-261800-
SOUTHWEST MARICOPA COUNTY AND PINAL COUNTY

CITY           SKY/WX    TMP DP  RH WIND       PRES   REMARKS
CASA GRANDE    SUNNY     75  19  12 CALM      30.12R
$$

AZZ503-504-507>509-261800-
SOUTHEAST ARIZONA

CITY           SKY/WX    TMP DP  RH WIND       PRES   REMARKS
TUCSON         SUNNY     75  31  19 N10       30.16S
RYAN FIELD       N/A     77  32  19 E12       30.15S
NOGALES        SUNNY     70  28  21 CALM      30.19R
SAFFORD        SUNNY     68  18  14 SE12      30.24R
$$

AZZ020-021-025-026-031-261800-
SOUTHWEST ARIZONA

CITY           SKY/WX    TMP DP  RH WIND       PRES   REMARKS
YUMA           SUNNY     82  27  13 NE13      30.08R
$$

CAZ031-033-041-043-047-048-061-261800-
SOUTHERN CALIFORNIA

CITY           SKY/WX    TMP DP  RH WIND       PRES   REMARKS
DOWNTOWN L.A.  SUNNY     81  38  21 CALM      30.08R
L.A. AIRPORT   SUNNY     79  34  19 E6        30.09R
SAN DIEGO      SUNNY     73  38  27 S5        30.09R
BURBANK        SUNNY     76  36  23 CALM      30.11R
ONTARIO        SUNNY     75  35  23 W6        30.12R
RIVERSIDE      SUNNY     77  35  21 CALM      30.12S
PALM SPRINGS   SUNNY     85  24  11 NW12      30.14S
EL CENTRO NAS  MOSUNNY   85  29  13 N15       30.09R
IMPERIAL       SUNNY     80  41  24 N9        30.08R
BLYTHE         SUNNY     77  28  16 E6        30.13R
$$

NVZ020-UTZ003-261800-
SOUTHERN NEVADA-UTAH

CITY           SKY/WX    TMP DP  RH WIND       PRES   REMARKS
LAS VEGAS      NOT AVBL
SALT LAKE CITY MOSUNNY   50  21  32 CALM      30.43R
$$

NMZ009-TXZ055-261800-
NEW MEXICO-WEST TEXAS

CITY           SKY/WX    TMP DP  RH WIND       PRES   REMARKS
ALBUQUERQUE    MOSUNNY   48  17  29 CALM      30.36S
EL PASO        SUNNY     55  28  35 SE8       30.32S
$$


........................KEY........................
SKY/WX - SKY CONDITION/WEATHER
TMP    - TEMPERATURE IN FAHRENHEIT
DP     - DEW POINT IN FAHRENHEIT
RH     - RELATIVE HUMIDITY IN PERCENT
WIND   - DIRECTION AND SPEED IN MILES PER HOUR (MPH)
VRB    - VARIABLE WIND DIRECTION
PRES   - MEAN SEA LEVEL PRESSURE IN INCHES OF MERCURY
         F - FALLING PRESSURE   R - RISING PRESSURE
         S - STEADY PRESSURE
VSB    - VISIBILITY IN MILES
HX     - HEAT INDEX IN FAHRENHEIT
WCI    - WIND CHILL INDEX IN FAHRENHEIT
TC     - TEMPERATURE IN CELSIUS WHICH IS ALSO KNOWN AS
         TEMPERATURE IN CENTIGRADE
AFB    - AIR FORCE BASE
         LUKE AFB IS LUKE AIR FORCE BASE
         DAVIS-MONTHAN IS DAVIS-MONTHAN AIR FORCE BASE
NAS    - NAVAL AIR STATION
         EL CENTRO NAS IS EL CENTRO NAVAL AIR STATION
N/A    - NOT AVAILABLE




USA.gov is the U.S. government's official web portal to all federal, state and local government web resources and services.